Theta_e
300 300 297 295 294 292 293 293 292 294 295 293 291 290 292 290 290 290 290 290 289 288 287 286 284 284 283 283 282 282 282 281 281 281 282 282 284 284 284 284 284 285 285
298 298 294 292 292 293 292 292 292 292 294 294 294 291 294 290 291 290 288 289 287 287 287 286 284 284 282 282 282 282 281 281 280 280 279 279 280 282 284 283 284 282 284
297 298 293 292 291 291 290 292 292 291 293 293 291 285 285 284 284 285 286 286 287 286 286 286 285 284 283 282 281 281 282 280 280 280 281 278 278 278 281 282 282 281 282
293 293 293 291 292 292 291 291 291 290 292 292 290 289 289 288 289 290 290 287 286 286 286 285 284 284 283 281 281 281 280 281 279 281 282 280 280 277 277 279 280 281 281
292 292 292 292 292 291 290 289 290 289 291 291 291 290 290 291 286 286 286 286 285 285 285 284 283 283 282 281 282 280 280 280 280 280 279 279 278 278 277 276 278 279 280
292 292 292 290 290 288 287 287 288 288 289 290 290 290 290 284 285 284 285 284 284 283 283 283 283 283 282 281 281 281 280 280 280 279 279 279 277 277 277 276 276 276 278
290 291 291 290 289 287 285 285 286 286 287 288 289 289 289 285 287 285 286 284 283 283 283 283 282 281 282 281 281 281 280 280 279 279 278 279 279 279 279 277 276 276 278
290 290 291 289 288 287 285 286 286 286 286 286 287 287 287 286 287 285 286 285 285 285 283 282 282 281 281 281 281 280 280 279 279 278 278 279 279 279 279 278 277 275 276
291 291 291 289 287 286 286 286 285 286 285 285 286 286 286 286 286 284 284 285 285 284 282 282 281 280 280 280 280 280 279 279 279 278 278 278 278 279 279 279 279 276 273
291 291 292 291 288 287 286 286 286 286 285 286 287 287 287 287 286 284 284 283 284 282 281 281 281 280 280 280 280 279 279 278 278 278 278 278 278 278 278 279 278 277 274
289 290 290 291 291 289 287 286 285 285 285 284 286 285 284 285 284 283 284 284 282 281 281 281 281 280 280 280 280 279 278 278 277 278 278 277 278 277 276 276 275 275 275
287 288 289 289 290 291 292 291 288 286 286 285 285 284 284 283 283 283 283 283 282 281 281 281 280 280 280 280 280 279 278 278 277 277 277 276 276 274 274 274 273 273 274
285 286 287 288 289 289 290 290 290 290 288 288 285 284 284 283 284 284 283 283 282 281 281 281 280 280 280 279 280 279 278 278 278 277 276 275 274 272 272 272 271 271 273
284 285 286 287 288 289 289 288 288 288 287 286 285 284 283 284 285 285 284 282 282 281 281 281 280 280 280 280 279 279 278 278 277 277 276 274 274 273 271 271 271 271 270
283 285 286 287 288 288 288 288 288 287 286 286 286 286 285 284 284 284 284 281 282 282 281 280 280 280 280 279 279 279 278 277 276 275 275 274 274 276 274 271 270 270 268
284 286 285 288 286 286 286 286 287 286 286 285 285 286 285 283 282 284 283 280 280 280 280 280 279 278 279 283 284 280 278 277 275 274 274 273 274 277 278 277 276 272 266
282 285 283 284 284 285 286 284 285 286 284 284 284 284 283 283 284 281 280 280 279 280 279 279 279 278 279 284 285 284 278 277 275 274 273 272 273 274 275 278 277 277 277
283 283 282 281 282 283 283 284 285 284 284 283 283 283 282 281 281 278 279 278 278 278 278 279 278 279 278 284 286 284 277 276 275 274 274 273 272 273 274 275 275 275 275
283 281 280 281 281 280 282 282 280 281 283 283 283 282 281 280 279 277 277 278 278 278 279 279 278 278 278 283 286 283 276 276 274 274 274 274 273 275 277 273 271 272 273
280 278 278 278 278 279 281 278 277 279 278 280 281 281 279 277 277 276 274 275 278 278 278 277 278 278 277 282 286 283 275 274 273 273 274 276 274 277 278 272 270 268 271
277 277 276 275 276 279 277 275 276 276 277 277 277 280 281 278 277 277 273 274 275 274 273 274 275 276 276 278 285 285 275 274 273 272 272 273 278 278 280 277 272 271 273
275 276 274 274 275 276 274 274 273 275 275 275 275 277 278 279 277 275 274 273 274 274 271 271 270 272 274 278 284 285 278 278 273 272 273 273 278 279 280 279 277 278 271
274 275 272 272 274 273 272 271 272 272 271 272 272 273 274 277 277 275 274 272 273 272 269 270 269 270 272 274 282 285 281 279 274 274 274 276 279 279 279 280 279 273 266
272 272 271 270 270 272 271 270 270 270 268 268 268 269 270 273 277 275 275 273 272 272 272 270 270 270 270 272 276 281 281 279 274 275 275 276 278 279 273 275 274 269 267
271 271 270 269 269 270 269 268 268 266 265 265 266 266 268 269 273 275 274 273 274 275 273 273 273 271 269 271 276 281 279 276 273 273 273 274 271 269 267 267 266 266 266
269 268 267 266 266 266 265 265 265 264 263 262 263 264 266 267 270 273 273 277 278 278 279 279 275 274 276 276 278 282 282 279 278 272 271 269 268 267 266 265 264 265 265
Wind_Speed
21 18 9 9 9 8 10 14 14 15 14 12 12 7 12 9 8 8 12 12 9 10 9 6 7 6 7 6 6 4 4 1 1 2 3 4 4 5 4 3 4 5 5
18 20 8 7 9 11 13 12 15 15 15 12 11 4 10 6 8 7 8 10 10 10 10 10 9 9 6 7 7 6 4 2 1 4 2 2 2 2 2 2 3 5 3
20 21 7 7 9 10 13 15 16 17 16 12 8 4 6 4 4 4 6 8 12 13 12 12 10 10 8 8 7 6 6 5 1 2 5 2 4 1 1 1 1 4 4
9 10 10 8 10 12 8 9 10 13 14 17 15 15 10 10 10 11 9 10 13 13 13 12 11 11 7 7 7 5 4 5 5 2 2 4 4 4 1 1 2 2 2
8 11 11 10 9 7 9 9 12 13 13 16 17 15 14 9 4 5 9 10 9 11 12 12 11 10 8 7 9 7 7 4 5 4 4 2 4 3 3 3 3 2 1
12 13 8 8 10 5 2 7 10 11 10 12 13 16 14 8 9 8 10 8 7 7 10 12 12 11 10 10 9 7 8 6 4 3 4 5 5 4 4 2 3 2 2
10 12 11 12 10 5 1 3 6 7 8 11 11 12 12 12 14 13 12 13 10 9 12 13 12 10 11 10 9 8 7 7 5 6 4 3 4 4 3 3 2 1 2
8 10 10 7 8 6 4 7 8 7 7 9 10 7 7 6 7 9 9 10 11 13 12 12 10 11 11 10 9 6 5 6 5 7 5 4 4 3 4 5 5 1 2
9 10 11 8 7 6 5 6 7 7 8 9 7 8 10 10 10 9 9 9 9 8 12 15 13 12 13 13 12 9 9 8 6 6 6 4 3 4 4 3 4 5 3
10 11 14 13 10 7 6 7 7 6 4 7 10 10 11 12 10 10 12 11 11 10 13 15 14 14 12 12 13 9 8 11 8 7 9 6 4 6 4 5 3 2 3
19 18 17 17 16 11 9 7 6 6 7 5 6 6 5 6 7 10 11 12 9 12 14 15 15 16 16 14 13 12 12 13 11 9 10 9 8 6 5 4 3 4 4
19 16 14 14 15 15 16 16 11 8 8 6 7 8 7 8 8 10 10 12 14 14 15 15 15 15 16 16 17 16 14 15 14 13 11 10 7 8 7 5 7 6 6
17 17 17 16 16 15 14 14 14 15 10 12 10 9 9 9 14 14 12 11 13 15 15 16 18 18 18 18 18 17 16 16 14 14 14 12 12 10 8 8 8 5 5
18 16 16 16 15 15 14 15 14 14 14 11 10 13 11 14 14 13 12 13 14 13 15 17 17 17 19 19 19 18 16 16 14 14 13 13 14 13 12 8 8 6 7
18 17 17 15 16 16 16 16 14 14 14 13 16 15 9 8 10 11 12 11 13 15 14 13 15 16 16 15 19 19 18 17 15 13 13 12 12 18 15 9 10 9 6
15 14 16 15 18 19 17 17 16 17 17 15 14 15 13 7 9 11 10 11 13 13 13 16 16 16 13 27 32 23 17 17 17 15 12 11 14 18 21 19 18 14 9
15 12 15 15 15 16 15 16 15 14 15 15 14 14 16 15 11 8 7 11 14 13 15 16 16 17 17 29 31 30 15 17 16 16 14 12 10 12 12 19 19 18 19
11 11 11 12 13 15 14 14 15 15 13 13 12 14 16 15 12 7 7 6 7 13 14 15 16 16 16 30 31 30 15 16 17 17 18 17 17 16 15 15 13 10 7
8 9 10 12 13 14 15 14 16 16 15 15 16 17 15 16 13 7 6 6 6 9 12 11 14 17 15 30 31 28 14 15 16 15 16 16 16 23 26 13 12 10 8
7 10 10 7 8 13 12 13 15 15 15 15 17 15 13 13 14 8 5 4 6 8 7 8 10 12 12 27 31 29 12 14 11 13 15 22 19 27 29 15 13 11 9
11 10 9 10 11 9 9 15 14 15 14 14 17 18 13 12 10 10 2 4 5 3 3 4 5 8 11 16 32 34 12 11 11 11 12 11 25 26 27 21 11 9 9
14 14 12 13 14 11 10 13 17 15 13 15 17 16 17 11 7 8 6 4 6 8 7 7 4 4 7 16 28 33 23 21 14 14 11 12 26 25 24 18 19 18 10
14 13 10 15 17 13 8 13 15 13 15 17 17 17 17 16 10 10 9 6 7 6 7 8 8 7 7 8 25 31 28 24 10 9 15 23 26 25 21 21 19 8 6
15 13 14 16 19 16 14 14 14 13 14 17 18 17 16 16 13 9 9 9 8 9 9 10 10 9 9 10 10 13 16 20 12 16 12 16 17 15 9 7 10 6 5
17 13 15 16 21 20 19 17 16 14 16 17 17 16 14 15 15 11 10 10 11 12 10 10 9 11 11 13 18 18 13 14 17 15 12 11 8 9 6 5 5 4 5
17 17 19 19 21 21 21 18 16 15 17 18 15 13 12 12 12 12 10 20 24 23 26 22 15 10 15 21 27 30 27 30 33 13 12 12 11 10 9 8 7 6 6
Wind_Direction
278 274 254 220 215 203 191 195 186 186 170 172 172 177 195 183 189 188 187 185 178 173 168 160 157 162 172 174 163 126 144 63 14 108 57 45 85 56 50 73 55 53 34
287 282 268 223 207 209 199 190 192 180 184 184 186 172 181 193 193 179 182 179 169 170 170 169 176 173 162 167 175 159 145 137 42 130 102 60 359 43 63 100 89 48 47
272 288 320 242 241 224 201 197 192 182 181 173 152 82 86 67 124 174 182 184 178 176 176 176 175 177 173 180 181 170 166 146 58 70 139 110 217 357 317 305 97 55 44
296 277 288 262 235 242 205 182 175 179 180 169 171 178 187 182 202 193 191 189 185 179 177 177 177 178 174 172 178 173 173 135 155 116 71 72 135 166 316 312 300 345 77
297 295 291 277 258 226 192 184 164 170 184 187 184 183 192 189 146 145 166 179 184 185 181 177 172 175 178 176 172 170 175 179 149 150 153 93 52 66 126 227 318 6 298
322 311 305 303 298 345 192 158 168 167 170 187 194 199 197 150 149 158 168 172 176 179 185 180 182 182 177 176 180 176 173 178 158 152 161 160 163 179 156 167 231 235 289
315 324 333 343 341 328 147 131 146 164 164 184 194 200 195 179 181 173 178 171 175 192 202 189 185 182 180 176 167 173 176 172 174 171 180 157 157 135 125 115 131 176 304
338 342 337 351 335 324 158 152 172 179 179 184 194 184 191 191 198 187 179 181 188 189 175 188 187 183 176 172 171 171 172 163 168 173 166 151 155 136 136 146 140 160 272
329 332 335 352 1 320 250 192 191 192 184 188 186 197 181 183 194 177 176 189 192 181 170 179 180 183 180 175 172 177 173 168 166 171 162 153 164 149 144 133 143 149 189
312 347 8 12 19 353 336 325 313 277 231 207 204 204 212 200 183 177 196 185 181 168 173 180 182 180 186 182 178 177 169 168 173 169 166 165 157 154 150 161 144 132 141
17 15 15 19 14 3 3 338 326 315 295 287 289 265 253 216 191 198 196 191 173 175 178 183 185 182 185 186 185 182 173 180 174 169 173 170 157 155 148 144 148 158 157
6 3 8 6 12 14 13 9 341 326 306 270 243 231 222 208 208 220 211 184 181 181 183 183 185 189 190 186 189 184 181 180 179 174 171 170 161 161 157 161 171 168 173
6 359 359 6 8 8 8 3 355 1 340 308 278 249 226 209 220 218 209 204 197 189 187 184 187 190 191 188 193 188 182 186 187 175 175 171 165 174 178 169 168 166 170
358 356 355 356 357 357 359 357 351 353 343 333 289 262 235 221 226 223 209 203 198 201 199 193 192 195 189 190 190 185 185 184 185 176 176 170 179 177 171 175 172 165 171
348 352 350 342 344 349 347 349 344 344 338 339 340 323 278 251 234 222 211 200 202 197 198 200 198 192 196 193 188 186 184 180 177 175 175 177 172 176 174 172 177 171 168
338 342 342 343 339 340 339 341 341 339 334 342 343 336 323 287 255 241 218 196 201 198 194 198 194 197 201 198 194 185 181 182 178 174 173 171 171 188 183 188 191 182 173
318 330 333 334 331 329 331 331 329 330 332 333 333 339 337 327 297 252 220 208 204 193 200 200 194 196 207 200 197 194 184 179 180 170 170 165 169 173 179 193 193 195 198
312 317 321 322 317 321 323 325 325 326 327 326 325 335 335 323 305 274 239 237 212 204 200 201 199 198 203 200 196 193 187 181 176 173 174 173 169 179 181 184 195 199 200
298 310 311 308 316 315 320 327 326 324 325 325 325 329 330 319 307 265 256 236 226 222 220 209 198 203 204 197 191 187 191 186 175 169 172 173 173 183 185 175 180 189 204
292 296 292 276 284 296 312 321 315 316 318 325 321 307 308 303 293 275 250 234 224 230 222 213 207 211 205 198 193 185 178 179 173 170 174 177 175 184 186 176 175 185 198
298 295 296 287 289 281 310 304 303 303 310 315 311 303 302 296 295 289 249 234 216 176 188 195 207 205 200 204 198 188 185 178 172 174 173 182 185 187 189 182 179 189 174
293 293 295 295 296 297 300 292 291 301 305 299 297 306 309 299 283 258 258 227 217 195 181 170 176 199 200 213 206 199 186 183 179 181 174 168 181 187 190 189 191 198 139
284 287 283 286 288 286 274 278 286 300 300 301 302 304 302 301 270 255 242 225 210 216 192 190 198 185 182 214 217 204 184 196 184 176 167 165 179 182 191 190 195 147 141
283 286 285 281 285 288 288 280 297 303 297 296 296 297 294 293 278 246 238 226 217 211 211 199 202 189 186 187 208 206 179 185 171 163 157 166 172 174 138 160 170 156 145
291 290 282 283 285 292 291 297 300 304 295 291 288 286 285 281 279 249 236 232 233 220 221 209 202 187 194 200 198 189 174 169 160 154 157 162 149 148 145 151 143 148 144
293 294 291 289 291 294 293 296 298 299 291 286 284 281 282 281 280 268 255 244 242 241 239 233 200 207 203 189 201 208 182 174 165 160 169 165 164 165 157 164 157 167 160